TimeEST,TemperatureF,Dew PointF,Humidity,Sea Level PressureIn,VisibilityMPH,Wind Direction,Wind SpeedMPH,Gust SpeedMPH,PrecipitationIn,Events,Conditions,WindDirDegrees,DateUTC
12:51 AM,36.0,27.0,70,30.14,9.0,WNW,6.9,-,N/A,,Overcast,300,2012-11-05 05:51:00
1:51 AM,36.0,27.0,70,30.13,9.0,WNW,6.9,-,N/A,,Overcast,300,2012-11-05 06:51:00
2:51 AM,36.0,28.0,73,30.13,8.0,WNW,5.8,-,N/A,,Overcast,300,2012-11-05 07:51:00
3:51 AM,36.0,28.0,73,30.13,8.0,WNW,5.8,-,N/A,,Overcast,290,2012-11-05 08:51:00
4:51 AM,36.0,28.9,76,30.14,8.0,WNW,4.6,-,N/A,,Overcast,300,2012-11-05 09:51:00
5:51 AM,36.0,28.9,76,30.15,8.0,WNW,5.8,-,N/A,,Overcast,300,2012-11-05 10:51:00
6:51 AM,35.1,30.0,82,30.17,7.0,NW,4.6,-,0.00,,Overcast,310,2012-11-05 11:51:00
7:25 AM,35.6,30.2,81,30.13,5.0,NW,5.8,-,0.00,Rain-Snow,Light Rain,320,2012-11-05 12:25:00
7:39 AM,35.6,30.2,81,30.14,2.5,NNW,5.8,-,0.00,Rain-Snow,Light Rain,330,2012-11-05 12:39:00
7:46 AM,35.6,30.2,81,30.14,1.0,NNE,6.9,-,0.00,Rain-Snow,Light Rain,30,2012-11-05 12:46:00
7:51 AM,34.0,30.0,85,30.18,1.0,NNE,6.9,-,0.01,Rain-Snow,Light Rain,20,2012-11-05 12:51:00
8:27 AM,35.6,32.0,87,30.15,2.5,NNE,4.6,-,0.00,Rain-Snow,Light Rain,30,2012-11-05 13:27:00
8:51 AM,36.0,30.9,82,30.19,5.0,NE,5.8,-,0.00,Snow,Light Snow,40,2012-11-05 13:51:00
9:51 AM,36.0,28.9,76,30.19,7.0,NNE,8.1,-,0.00,,Overcast,20,2012-11-05 14:51:00
10:51 AM,37.0,27.0,67,30.19,7.0,NNE,9.2,-,N/A,,Overcast,30,2012-11-05 15:51:00
11:51 AM,37.0,26.1,65,30.19,7.0,North,9.2,-,N/A,,Overcast,10,2012-11-05 16:51:00
12:51 PM,37.9,25.0,60,30.18,10.0,NNE,6.9,-,N/A,,Overcast,20,2012-11-05 17:51:00
1:51 PM,37.9,26.1,62,30.17,10.0,North,10.4,-,N/A,,Overcast,10,2012-11-05 18:51:00
2:51 PM,37.0,26.1,65,30.17,8.0,NE,6.9,-,N/A,,Overcast,40,2012-11-05 19:51:00
3:51 PM,37.0,26.1,65,30.17,7.0,NNE,6.9,-,N/A,,Overcast,20,2012-11-05 20:51:00
4:51 PM,37.0,26.1,65,30.17,7.0,NNE,5.8,-,N/A,,Overcast,30,2012-11-05 21:51:00
5:51 PM,36.0,27.0,70,30.18,8.0,NE,3.5,-,N/A,,Overcast,50,2012-11-05 22:51:00
6:51 PM,36.0,26.1,67,30.18,8.0,NE,4.6,-,N/A,,Overcast,50,2012-11-05 23:51:00
7:51 PM,36.0,25.0,64,30.19,8.0,NE,4.6,-,N/A,,Overcast,40,2012-11-06 00:51:00
8:51 PM,35.1,24.1,64,30.21,8.0,NNE,9.2,-,N/A,,Overcast,20,2012-11-06 01:51:00
9:51 PM,34.0,23.0,64,30.20,10.0,East,4.6,-,N/A,,Overcast,100,2012-11-06 02:51:00
10:51 PM,34.0,23.0,64,30.19,10.0,SE,5.8,-,N/A,,Overcast,130,2012-11-06 03:51:00
11:51 PM,33.1,23.0,66,30.18,9.0,ESE,4.6,-,N/A,,Overcast,120,2012-11-06 04:51:00